This is the latest recevied weather packets stored in our database for station/object N4AN. If no packets are shown the sender has not sent any weather packets the latest 10 day(s).
| Time | Temp. | Humidity | Pressure | Rain* | Wind** | Luminosity | Snow |
|---|---|---|---|---|---|---|---|
| 1787715549 | 30° C | 79% | 1012.1 hPa | 0 mm | - | - | - |
| 1787715249 | 29.44° C | 79% | 1012.1 hPa | 0 mm | - | - | - |
| 1787714949 | 29.44° C | 78% | 1012 hPa | 0 mm | - | - | - |
| 1787714648 | 30° C | 79% | 1012.1 hPa | 0 mm | - | - | - |
| 1787714348 | 29.44° C | 78% | 1012.2 hPa | 0 mm | - | - | - |
| 1787714048 | 30° C | 76% | 1012.3 hPa | 0 mm | - | - | - |
| 1787713746 | 30.56° C | 76% | 1012.2 hPa | 0 mm | - | - | - |
| 1787713446 | 30.56° C | 75% | 1012.2 hPa | 0 mm | - | - | - |
| 1787713358 | 31.67° C | 74% | 1012.3 hPa | 0 mm | - | - | - |
| 1787713358 | 31.67° C | 74% | 1012.4 hPa | 0 mm | - | - | - |
| 1787712543 | 31.11° C | 75% | 1012.3 hPa | 0 mm | - | - | - |
| 1787712243 | 31.11° C | 73% | 1012.3 hPa | 0 mm | - | - | - |
| 1787711943 | 31.67° C | 73% | 1012.3 hPa | 0 mm | - | - | - |
| 1787711643 | 31.67° C | 73% | 1012.2 hPa | 0 mm | - | - | - |
| 1787711342 | 31.67° C | 72% | 1012.1 hPa | 0 mm | - | - | - |
| 1787711039 | 31.67° C | 72% | 1012 hPa | 0 mm | - | - | - |
| 1787710739 | 31.67° C | 73% | 1012 hPa | 0 mm | - | - | - |
| 1787710439 | 31.67° C | 72% | 1012 hPa | 0 mm | - | - | - |
| 1787710138 | 31.67° C | 72% | 1011.9 hPa | 0 mm | - | - | - |
| 1787709534 | 31.67° C | 72% | 1011.8 hPa | 0 mm | - | - | - |
| 1787709233 | 31.67° C | 72% | 1011.7 hPa | 0 mm | - | - | - |
| 1787708933 | 31.67° C | 72% | 1011.6 hPa | 0 mm | - | - | - |
| 1787708633 | 31.67° C | 71% | 1011.5 hPa | 0 mm | - | - | - |
| 1787708332 | 31.67° C | 72% | 1011.6 hPa | 0 mm | - | - | - |
| 1787708032 | 31.11° C | 72% | 1011.4 hPa | 0 mm | - | - | - |
* Rain latest hour (hover to see other rain measurements)
** Current wind speed in m/s (hover to see current wind gust speed)